User: anonymous   Login
Location: Unspecified
(0.0000°N, 0.0000°E)
Time: 19:15:24
(UTC+00:00)
Language:

STARLINK-33854 - Orbit

View from above orbital plane
View from above orbital plane
View from above satellite
View from above satellite

Ground track
Ground track

The orbit is defined by the following mean orbital elements,

1 63635U          26145.41616397 +.00000000 +00000-0 +81491-3 0 00007
2 63635  42.9995 291.6941 0001809 268.1112  91.9533 15.27596018    08
Epoch (UTC): 25 May 2026 09:59:16
Eccentricity: 0.0001809
inclination: 42.9995°
perigee height: 482 km
apogee height: 484 km
right ascension of ascending node: 291.6941°
argument of perigee: 268.1112°
revolutions per day: 15.27596018
mean anomaly at epoch: 91.9533°

The dashed part of the orbit path shows where the satellite is in the earth's shadow,  

DLR